This is the latest recevied weather packets stored in our database for station/object KK4PWJ-13. If no packets are shown the sender has not sent any weather packets the latest 1 day(s).
| Time | Temp. | Humidity | Pressure | Rain* | Wind** | Luminosity | Snow |
|---|---|---|---|---|---|---|---|
| 1778070505 | 17.22° C | 76% | 1012.3 hPa | 0 mm | - | 28 W/m² | - |
| 1778069900 | 17.22° C | 76% | 1012.1 hPa | 0 mm | - | 39 W/m² | - |
| 1778069294 | 17.22° C | 76% | 1012.2 hPa | 0 mm | - | 43 W/m² | - |
| 1778068689 | 17.22° C | 76% | 1012.1 hPa | 0 mm | - | 28 W/m² | - |
| 1778068387 | 17.22° C | 76% | 1012.1 hPa | 0 mm | - | 43 W/m² | - |
| 1778067178 | 17.22° C | 76% | 1011.7 hPa | 0 mm | - | 23 W/m² | - |
| 1778065967 | 16.67° C | 76% | 1011.6 hPa | 0 mm | - | 16 W/m² | - |
| 1778065057 | 16.67° C | 76% | 1012 hPa | 0 mm | - | 11 W/m² | - |
| 1778062636 | 16.67° C | 77% | 1011.4 hPa | 0 mm | - | 1 W/m² | - |
| 1778062031 | 16.67° C | 76% | 1011.4 hPa | 0 mm | - | 0 W/m² | - |
| 1778061427 | 16.67° C | 76% | 1011.6 hPa | 0 mm | - | 0 W/m² | - |
| 1778060518 | 16.67° C | 77% | 1011.9 hPa | 0 mm | - | 0 W/m² | - |
| 1778059006 | 16.11° C | 79% | 1012.1 hPa | 0 mm | - | 0 W/m² | - |
| 1778058703 | 16.11° C | 80% | 1012.1 hPa | 0 mm | - | 0 W/m² | - |
| 1778058401 | 16.11° C | 79% | 1012.2 hPa | 0 mm | - | 0 W/m² | - |
| 1778056884 | 16.67° C | 79% | 1012.4 hPa | 0 mm | - | 0 W/m² | - |
| 1778056581 | 16.67° C | 78% | 1012.2 hPa | 0 mm | - | 0 W/m² | - |
| 1778056279 | 16.67° C | 78% | 1012.3 hPa | 0 mm | - | 0 W/m² | - |
| 1778055671 | 16.67° C | 78% | 1012 hPa | 0 mm | - | 0 W/m² | - |
| 1778053855 | 16.67° C | 77% | 1012.1 hPa | 0 mm | - | 0 W/m² | - |
| 1778053553 | 16.67° C | 77% | 1012 hPa | 0 mm | - | 0 W/m² | - |
| 1778052947 | 16.67° C | 76% | 1012.2 hPa | 0 mm | - | 0 W/m² | - |
| 1778052644 | 16.67° C | 76% | 1012.1 hPa | 0 mm | - | 0 W/m² | - |
| 1778052341 | 16.67° C | 77% | 1012.1 hPa | 0 mm | - | 0 W/m² | - |
| 1778052039 | 16.67° C | 77% | 1012.2 hPa | 0 mm | - | 0 W/m² | - |
* Rain latest hour (hover to see other rain measurements)
** Current wind speed in m/s (hover to see current wind gust speed)